User: anonymous   Login
Location: Unspecified
(0.0000°N, 0.0000°E)
Time: 19:57:01
(UTC+00:00)
Language:

COSMOS-2408 - Orbit

View from above orbital plane
View from above orbital plane
View from above satellite
View from above satellite

Ground track
Ground track

The orbit data is extracted from the following two-line orbital elements,

1 28419U 04037A   18171.68316825 +.00000042 +00000-0 +22475-3 0  9994
2 28419 082.4831 353.9928 0015614 182.5551 177.5453 12.45612872624715
Epoch (UTC): 20 June 2018 16:23:45
Eccentricity: 0.0015614
inclination: 82.4831°
perigee height: 1470 km
apogee height: 1495 km
right ascension of ascending node: 353.9928°
argument of perigee: 182.5551°
revolutions per day: 12.45612872
mean anomaly at epoch: 177.5453°
orbit number at epoch: 62471

The dashed part of the orbit path shows where the satellite is in the earth's shadow,  

DLR